Weather History for Erie, PA

Change the Weather History Date:

Wednesday, February 6, 2013

  Actual Average Record
Temperature  
Mean Temperature 21 °F 27 °F  
Max Temperature 29 °F 34 °F 58 °F (1938)
Min Temperature 13 °F 20 °F -9 °F (1895)
Degree Days  
Heating Degree Days 44 38  
Month to date heating degree days 270 228  
Since 1 July heating degree days 3310 3566  
Cooling Degree Days 0 0  
Month to date cooling degree days 0 0  
Year to date cooling degree days 0 0  
Moisture  
Dew Point 16 °F    
Average Humidity 71    
Maximum Humidity 85    
Minimum Humidity 57    
Precipitation  
Precipitation 0.00 in 0.08 in 0.93 in (2008)
Month to date precipitation 0.89 0.49  
Year to date precipitation 4.21 3.44  
Snow  
Snow 0.00 in 0.70 in - ()
Month to date snowfall 16.5 4.5  
Since 1 July snowfall 69.0 70.3  
Snow Depth 4.00 in    
Sea Level Pressure  
Sea Level Pressure 30.18 in    
Wind  
Wind Speed 7 mph (WNW)    
Max Wind Speed 15 mph    
Max Gust Speed 23 mph    
Visibility 10 miles    
Events      
T = Trace of Precipitation, MM = Missing Value Source: NWS Daily Summary

Daily Weather History Graph

Daily Weather History Graph

Search for Another Location

Airport:

Trip Planner

Search our weather history database for the weather conditions in past years. The results will help you decide how hot, cold, wet, or windy it might be!

Date:

Astronomy

Feb. 06, 2013 Rise Set
Actual Time 7:27 AM EST 5:42 PM EST
Civil Twilight 6:58 AM EST 6:11 PM EST
Nautical Twilight 6:25 AM EST 6:44 PM EST
Astronomical Twilight 5:52 AM EST 7:17 PM EST
Moon 4:12 AM EST (2/6) 1:57 PM EST (2/6)
Length of Visible Light 11h 12m
Length of Day
10h 14m
Waning Crescent, 17% of the Moon is Illuminated
Feb 6
Waning Crescent
Feb 10
New
Feb 17
First Quarter
Feb 25
Full
Mar 4
Last Quarter

Hourly Weather History & Observations

Time (EST) Temp. Windchill Dew Point Humidity Pressure Visibility Wind Dir Wind Speed Gust Speed Precip Events Conditions
12:21 AM 26.6 °F 16.8 °F 19.4 °F 74% 29.90 in 10.0 mi SW 10.4 mph - N/A   Overcast
12:51 AM 26.1 °F 18.4 °F 21.0 °F 81% 29.95 in 10.0 mi WSW 6.9 mph - N/A   Overcast
1:24 AM 26.6 °F 16.8 °F 21.2 °F 80% 29.92 in 10.0 mi SW 10.4 mph - N/A   Overcast
1:51 AM 27.0 °F 18.0 °F 21.9 °F 81% 29.96 in 10.0 mi WSW 9.2 mph - N/A   Overcast
2:51 AM 28.0 °F 20.0 °F 23.0 °F 81% 29.98 in 7.0 mi SW 8.1 mph - N/A   Overcast
3:36 AM 28.4 °F 18.5 °F 24.8 °F 86% 29.97 in 5.0 mi West 11.5 mph - N/A   Overcast
3:51 AM 28.9 °F 19.8 °F 24.1 °F 82% 30.01 in 6.0 mi West 10.4 mph 20.7 mph N/A   Haze
4:19 AM 28.4 °F 18.5 °F 24.8 °F 86% 30.00 in 6.0 mi West 11.5 mph - N/A   Haze
4:51 AM 27.0 °F 15.6 °F 21.0 °F 78% 30.05 in 8.0 mi NW 13.8 mph 19.6 mph N/A   Overcast
5:02 AM 26.6 °F 16.8 °F 19.4 °F 74% 30.03 in 10.0 mi NW 10.4 mph 23.0 mph N/A   Overcast
5:51 AM 26.1 °F 16.8 °F 19.0 °F 75% 30.09 in 10.0 mi NNW 9.2 mph 17.3 mph N/A   Overcast
6:04 AM 26.6 °F 18.2 °F 19.4 °F 74% 30.06 in 10.0 mi NW 8.1 mph 17.3 mph N/A   Overcast
6:51 AM 26.1 °F 16.8 °F 17.1 °F 69% 30.14 in 10.0 mi WNW 9.2 mph - N/A   Overcast
7:51 AM 24.1 °F 14.4 °F 17.1 °F 75% 30.19 in 10.0 mi WNW 9.2 mph - N/A   Overcast
8:03 AM 24.8 °F 14.6 °F 15.8 °F 69% 30.16 in 10.0 mi WNW 10.4 mph - N/A   Overcast
8:51 AM 24.1 °F 13.1 °F 16.0 °F 71% 30.22 in 10.0 mi NW 11.5 mph - N/A   Overcast
9:51 AM 24.1 °F 16.0 °F 12.9 °F 62% 30.25 in 10.0 mi WNW 6.9 mph - N/A   Mostly Cloudy
10:38 AM 26.6 °F 16.8 °F 14.0 °F 59% 30.23 in 10.0 mi NW 10.4 mph - N/A   Mostly Cloudy
10:51 AM 27.0 °F 18.7 °F 14.0 °F 58% 30.27 in 10.0 mi NW 8.1 mph - N/A   Mostly Cloudy
11:46 AM 26.6 °F 17.5 °F 15.8 °F 64% 30.25 in 10.0 mi WNW 9.2 mph - N/A   Scattered Clouds
11:51 AM 26.1 °F 16.8 °F 14.0 °F 60% 30.28 in 10.0 mi WNW 9.2 mph - N/A   Partly Cloudy
12:51 PM 26.1 °F 16.2 °F 14.0 °F 60% 30.29 in 10.0 mi West 10.4 mph - N/A   Partly Cloudy
1:51 PM 26.1 °F 16.2 °F 14.0 °F 60% 30.30 in 10.0 mi WNW 10.4 mph - N/A   Scattered Clouds
2:51 PM 25.0 °F 16.3 °F 14.0 °F 63% 30.31 in 10.0 mi West 8.1 mph - N/A   Clear
3:51 PM 25.0 °F 16.3 °F 12.9 °F 60% 30.31 in 10.0 mi WNW 8.1 mph - N/A   Clear
4:51 PM 24.1 °F 16.0 °F 14.0 °F 65% 30.33 in 10.0 mi West 6.9 mph - N/A   Clear
5:51 PM 21.9 °F 17.2 °F 12.9 °F 68% 30.33 in 10.0 mi SW 3.5 mph - N/A   Clear
6:51 PM 19.9 °F - 12.9 °F 74% 30.35 in 10.0 mi Calm Calm - N/A   Clear
7:51 PM 17.1 °F - 12.0 °F 81% 30.37 in 10.0 mi Calm Calm - N/A   Clear
8:51 PM 16.0 °F - 10.9 °F 81% 30.38 in 10.0 mi Calm Calm - N/A   Clear
9:51 PM 15.1 °F - 10.0 °F 80% 30.38 in 10.0 mi Calm Calm - N/A   Clear
10:51 PM 12.9 °F - 9.0 °F 84% 30.36 in 10.0 mi Calm Calm - N/A   Clear
11:51 PM 15.1 °F - 10.0 °F 80% 30.34 in 10.0 mi Calm Calm - N/A   Clear